This demonstration page uses our WeatherBlox Daily Observations layout. Learn more.

Left ArrowRight Arrow

40.92945, -100.16068

Hourly Observations for November 2, 2021

Temp ( °F °C ) Dew Point ( °F °C ) Humidity (%) Winds ( mph kmh ) Pressure ( in mb ) Visibility ( mi km ) Precip ( " mm )
12:15 am 00:15 Cloudy with Mist and Fog 33 0.7 33 0.5 99 99 WNW 3 6 30.53 1034 4 6 0.00 0.00
12:35 am 00:35 Cloudy with Mist and Fog 33 0.8 33 0.5 98 98 WNW 5 7 30.52 1034 4 6 0.00 0.00
12:55 am 00:55 Cloudy with Mist and Fog 33 0.8 33 0.5 98 98 W 3 6 30.53 1034 4 6 0.00 0.00
1:15 am 01:15 Cloudy with Mist and Fog 33 0.8 33 0.5 98 98 WNW 5 7 30.53 1034 3 5 0.00 0.00
1:35 am 01:35 Cloudy with Mist and Fog 33 0.8 33 0.5 98 98 WNW 6 9 30.53 1034 4 6 0.00 0.00
1:55 am 01:55 Cloudy with Mist and Fog 33 0.7 33 0.5 99 99 WNW 6 9 30.54 1034 4 6 0.00 0.00
2:15 am 02:15 Cloudy with Mist and Fog 33 0.8 33 0.5 98 98 W 3 6 30.53 1034 3 5 0.00 0.00
2:35 am 02:35 Cloudy with Mist and Fog 33 0.8 33 0.5 98 98 WSW 5 7 30.53 1034 3 5 0.00 0.00
2:55 am 02:55 Cloudy with Mist and Fog 33 0.7 33 0.4 98 98 W 5 7 30.52 1034 4 6 0.00 0.00
3:15 am 03:15 Cloudy with Mist and Fog 33 0.7 33 0.3 97 97 Calm 30.52 1034 4 6 0.00 0.00
3:35 am 03:35 Cloudy with Mist and Fog 33 0.7 33 0.3 97 97 Calm 30.52 1034 4 6 0.00 0.00
3:55 am 03:55 Cloudy with Mist and Fog 33 0.7 33 0.3 97 97 Calm 30.52 1034 4 6 0.00 0.00
4:15 am 04:15 Cloudy with Mist and Fog 33 0.7 33 0.3 97 97 Calm 30.52 1034 4 6 0.00 0.00
4:35 am 04:35 Cloudy with Mist and Fog 33 0.7 33 0.3 97 97 Calm 30.52 1034 4 6 0.00 0.00
4:55 am 04:55 Cloudy with Mist and Fog 33 0.7 33 0.3 97 97 Calm 30.51 1033 4 6 0.00 0.00
5:15 am 05:15 Cloudy with Mist and Fog 33 0.7 33 0.3 97 97 Calm 30.51 1033 4 6 0.00 0.00
5:35 am 05:35 Cloudy with Mist and Fog 33 0.7 33 0.3 97 97 Calm 30.51 1033 5 8 0.00 0.00
5:55 am 05:55 Cloudy with Mist and Fog 33 0.7 33 0.4 98 98 Calm 30.51 1033 4 6 0.00 0.00
6:15 am 06:15 Cloudy with Mist and Fog 33 0.7 33 0.3 97 97 Calm 30.51 1033 5 8 0.00 0.00
6:35 am 06:35 Cloudy with Mist and Fog 33 0.7 33 0.3 97 97 Calm 30.50 1033 5 8 0.00 0.00
6:55 am 06:55 Cloudy with Mist and Fog 33 0.7 33 0.5 99 99 Calm 30.51 1033 4 6 0.00 0.00
7:15 am 07:15 Cloudy with Mist and Fog 33 0.7 33 0.4 98 98 Calm 30.51 1033 4 6 0.00 0.00
7:35 am 07:35 Cloudy with Mist and Fog 33 0.8 33 0.5 98 98 Calm 30.50 1033 4 6 0.00 0.00
7:55 am 07:55 Cloudy with Mist and Fog 33 0.7 33 0.3 97 97 Calm 30.50 1033 3 5 0.00 0.00
8:15 am 08:15 Cloudy with Mist and Fog 33 0.6 33 0.3 98 98 Calm 30.50 1033 2 2 0.00 0.00
8:35 am 08:35 Cloudy with Mist and Fog 33 0.7 33 0.5 99 99 Calm 30.50 1033 1 2 0.00 0.00
8:55 am 08:55 Cloudy with Mist and Fog 33 0.8 33 0.5 98 98 Calm 30.50 1033 3 5 0.00 0.00
9:15 am 09:15 Cloudy with Mist and Fog 34 1 33 0.6 97 97 Calm 30.50 1033 4 6 0.00 0.00
9:35 am 09:35 Cloudy with Mist and Fog 34 1 33 0.6 97 97 Calm 30.50 1033 5 8 0.00 0.00
9:55 am 09:55 Cloudy with Mist and Fog 34 1.2 33 0.8 97 97 SSE 6 9 30.50 1033 4 6 0.00 0.00
10:15 am 10:15 Cloudy with Mist and Fog 35 1.5 34 1.1 97 97 S 3 6 30.49 1033 3 5 0.00 0.00
10:35 am 10:35 Cloudy with Mist and Fog 35 1.6 34 1.1 97 97 S 6 9 30.49 1033 4 6 0.00 0.00
10:55 am 10:55 Cloudy 36 2 34 1.3 95 95 SSE 6 9 30.49 1032 7 11 0.00 0.00
11:15 am 11:15 Cloudy 36 2.3 35 1.6 95 95 S 3 6 30.48 1032 7 11 0.00 0.00
11:35 am 11:35 Cloudy 37 2.6 35 1.9 95 95 S 5 7 30.47 1032 7 11 0.00 0.00
11:55 am 11:55 Cloudy 37 2.8 36 2 95 95 SSE 6 9 30.47 1032 10 16 0.00 0.00
12:15 pm 12:15 Cloudy 38 3.1 36 2.1 93 93 SE 5 7 30.47 1032 10 16 0.00 0.00
12:35 pm 12:35 Cloudy 38 3.4 36 2.3 93 93 SSE 5 7 30.46 1032 10 16 0.00 0.00
12:55 pm 12:55 Cloudy 38 3.5 36 2.3 92 92 SE 3 6 30.45 1031 10 16 0.00 0.00
1:15 pm 13:15 Cloudy 39 3.8 37 2.5 91 91 SSE 5 7 30.45 1031 10 16 0.00 0.00
1:35 pm 13:35 Cloudy 39 4 37 2.5 90 90 SSE 6 9 30.43 1030 10 16 0.00 0.00
2:35 pm 14:35 Cloudy 40 4.6 37 2.7 88 88 S 6 9 30.39 1029 10 16 0.00 0.00
2:55 pm 14:55 Cloudy 41 4.8 37 2.7 86 86 S 6 9 30.39 1029 10 16 0.00 0.00
3:15 pm 15:15 Cloudy 40 4.7 36 2.4 85 85 S 6 9 30.38 1029 10 16 0.00 0.00
3:35 pm 15:35 Cloudy 41 5 37 2.6 85 85 SSE 6 9 30.38 1029 10 16 0.00 0.00
3:55 pm 15:55 Cloudy 41 5.1 37 2.5 83 83 SE 9 15 30.37 1028 10 16 0.00 0.00
4:15 pm 16:15 Cloudy 41 5.1 37 2.6 84 84 SSE 9 15 30.36 1028 10 16 0.00 0.00
4:35 pm 16:35 Cloudy 41 5.1 37 2.8 85 85 SSE 9 15 30.36 1028 10 16 0.00 0.00
4:55 pm 16:55 Cloudy 41 5.2 37 2.9 85 85 SSE 9 15 30.36 1028 10 16 0.00 0.00
5:15 pm 17:15 Cloudy 41 5.1 37 2.9 86 86 SSE 8 13 30.36 1028 10 16 0.00 0.00
5:35 pm 17:35 Cloudy 41 5 37 2.7 85 85 SSE 8 13 30.36 1028 10 16 0.00 0.00
5:55 pm 17:55 Cloudy 41 5 37 2.6 85 85 SSE 9 15 30.36 1028 10 16 0.00 0.00
6:15 pm 18:15 Cloudy 41 4.8 37 2.6 86 86 SSE 9 15 30.36 1028 10 16 0.00 0.00
6:35 pm 18:35 Cloudy 40 4.7 37 2.7 87 87 SSE 8 13 30.36 1028 10 16 0.00 0.00
6:55 pm 18:55 Cloudy 40 4.6 37 2.6 87 87 SSE 7 11 30.36 1028 10 16 0.00 0.00
7:15 pm 19:15 Cloudy 40 4.6 37 2.6 87 87 SSE 7 11 30.37 1029 10 16 0.00 0.00
7:35 pm 19:35 Cloudy 40 4.6 37 2.5 86 86 SSE 8 13 30.37 1029 10 16 0.00 0.00
7:55 pm 19:55 Cloudy 40 4.5 37 2.5 87 87 SSE 8 13 30.36 1028 10 16 0.00 0.00
8:15 pm 20:15 Cloudy 40 4.5 37 2.5 87 87 SSE 7 11 30.36 1028 10 16 0.00 0.00
8:35 pm 20:35 Cloudy 40 4.5 37 2.6 88 88 S 7 11 30.36 1028 10 16 0.00 0.00
8:55 pm 20:55 Cloudy 40 4.5 37 2.5 87 87 S 6 9 30.36 1028 10 16 0.00 0.00
9:15 pm 21:15 Cloudy 40 4.5 36 2.4 86 86 S 7 11 30.36 1028 10 16 0.00 0.00
9:35 pm 21:35 Cloudy 40 4.3 36 2.3 87 87 SSW 8 13 30.37 1028 10 16 0.00 0.00
9:55 pm 21:55 Cloudy 40 4.2 36 2.2 87 87 SSW 8 13 30.37 1028 10 16 0.00 0.00
10:15 pm 22:15 Cloudy 39 4.1 36 2.3 88 88 SSW 7 11 30.37 1028 10 16 0.00 0.00
10:35 pm 22:35 Cloudy 39 4 36 2.4 89 89 SSW 7 11 30.37 1028 10 16 0.00 0.00
10:55 pm 22:55 Cloudy 39 4 36 2.1 88 88 SSW 10 17 30.38 1029 10 16 0.00 0.00
11:15 pm 23:15 Cloudy 39 4 36 2.2 88 88 SSW 13 20 30.38 1029 10 16 0.00 0.00
11:35 pm 23:35 Cloudy 39 3.7 36 2 89 89 SSW 9 15 30.38 1029 10 16 0.00 0.00
11:55 pm 23:55 Cloudy 38 3.6 36 2.1 90 90 SSW 8 13 30.39 1029 10 16 0.00 0.00

Powered by AerisWeather